TimeCDT,TemperatureF,Dew PointF,Humidity,Sea Level PressureIn,VisibilityMPH,Wind Direction,Wind SpeedMPH,Gust SpeedMPH,PrecipitationIn,Events,Conditions,WindDirDegrees,DateUTC
12:15 AM,78.8,51.8,39,29.79,10.0,South,18.4,-,N/A,,Clear,170,2013-05-27 05:15:00
12:35 AM,78.8,53.6,42,29.79,10.0,South,19.6,-,N/A,,Clear,170,2013-05-27 05:35:00
12:55 AM,78.8,55.4,44,29.79,10.0,South,19.6,-,N/A,,Clear,170,2013-05-27 05:55:00
1:15 AM,78.8,57.2,47,29.79,10.0,South,24.2,29.9,N/A,,Clear,180,2013-05-27 06:15:00
1:35 AM,78.8,57.2,47,29.78,10.0,South,23.0,31.1,N/A,,Clear,170,2013-05-27 06:35:00
1:55 AM,78.8,57.2,47,29.78,10.0,South,24.2,31.1,N/A,,Clear,180,2013-05-27 06:55:00
2:15 AM,78.8,57.2,47,29.77,10.0,South,23.0,-,N/A,,Clear,180,2013-05-27 07:15:00
2:35 AM,77.0,57.2,50,29.77,10.0,South,21.9,28.8,N/A,,Clear,190,2013-05-27 07:35:00
2:55 AM,77.0,57.2,50,29.77,10.0,South,21.9,-,N/A,,Clear,190,2013-05-27 07:55:00
3:15 AM,75.2,57.2,53,29.77,10.0,South,21.9,27.6,N/A,,Clear,190,2013-05-27 08:15:00
3:35 AM,75.2,57.2,53,29.76,10.0,South,23.0,29.9,N/A,,Clear,190,2013-05-27 08:35:00
3:55 AM,75.2,59.0,57,29.76,10.0,South,21.9,28.8,N/A,,Clear,190,2013-05-27 08:55:00
4:15 AM,75.2,57.2,53,29.76,10.0,South,18.4,27.6,N/A,,Clear,190,2013-05-27 09:15:00
4:35 AM,75.2,57.2,53,29.76,10.0,South,17.3,-,N/A,,Clear,190,2013-05-27 09:35:00
4:55 AM,73.4,57.2,57,29.76,10.0,SSW,17.3,-,N/A,,Clear,200,2013-05-27 09:55:00
5:15 AM,73.4,57.2,57,29.76,10.0,SSW,16.1,-,N/A,,Clear,200,2013-05-27 10:15:00
5:35 AM,73.4,57.2,57,29.77,10.0,SSW,13.8,-,N/A,,Clear,210,2013-05-27 10:35:00
5:55 AM,71.6,57.2,60,29.78,10.0,SSW,11.5,-,N/A,,Clear,200,2013-05-27 10:55:00
6:15 AM,69.8,57.2,64,29.77,10.0,South,13.8,-,N/A,,Clear,180,2013-05-27 11:15:00
6:35 AM,68.0,57.2,68,29.77,10.0,South,13.8,-,N/A,,Clear,180,2013-05-27 11:35:00
6:55 AM,68.0,57.2,68,29.77,10.0,SSW,13.8,-,N/A,,Clear,200,2013-05-27 11:55:00
7:15 AM,69.8,59.0,68,29.77,10.0,SSW,15.0,-,N/A,,Clear,200,2013-05-27 12:15:00
7:35 AM,71.6,59.0,64,29.77,10.0,SSW,13.8,-,N/A,,Clear,210,2013-05-27 12:35:00
7:55 AM,71.6,60.8,69,29.77,10.0,SSW,15.0,-,N/A,,Clear,210,2013-05-27 12:55:00
8:15 AM,73.4,60.8,65,29.76,10.0,SW,21.9,-,N/A,,Clear,220,2013-05-27 13:15:00
8:35 AM,75.2,59.0,57,29.76,10.0,SW,20.7,26.5,N/A,,Clear,230,2013-05-27 13:35:00
8:55 AM,77.0,60.8,57,29.75,10.0,SW,20.7,26.5,N/A,,Clear,230,2013-05-27 13:55:00
9:15 AM,78.8,57.2,47,29.75,10.0,SW,23.0,26.5,N/A,,Clear,230,2013-05-27 14:15:00
9:35 AM,78.8,55.4,44,29.75,10.0,SW,18.4,-,N/A,,Clear,220,2013-05-27 14:35:00
9:55 AM,80.6,55.4,42,29.76,10.0,SW,17.3,23.0,N/A,,Clear,230,2013-05-27 14:55:00
10:15 AM,82.4,53.6,37,29.75,10.0,WSW,15.0,-,N/A,,Clear,240,2013-05-27 15:15:00
10:35 AM,86.0,53.6,33,29.75,10.0,West,13.8,-,N/A,,Clear,260,2013-05-27 15:35:00
10:55 AM,89.6,48.2,24,29.74,10.0,West,17.3,21.9,N/A,,Clear,260,2013-05-27 15:55:00
11:15 AM,91.4,46.4,21,29.73,10.0,West,15.0,21.9,N/A,,Clear,270,2013-05-27 16:15:00
11:35 AM,91.4,44.6,20,29.73,10.0,West,12.7,-,N/A,,Clear,260,2013-05-27 16:35:00
11:55 AM,93.2,44.6,19,29.73,10.0,West,12.7,19.6,N/A,,Clear,260,2013-05-27 16:55:00
12:15 PM,93.2,44.6,19,29.73,10.0,West,15.0,-,N/A,,Clear,260,2013-05-27 17:15:00
12:35 PM,93.2,42.8,17,29.72,10.0,West,16.1,19.6,N/A,,Partly Cloudy,260,2013-05-27 17:35:00
12:55 PM,95.0,42.8,16,29.72,10.0,WSW,15.0,19.6,N/A,,Clear,250,2013-05-27 17:55:00
1:15 PM,96.8,39.2,14,29.71,10.0,SW,9.2,23.0,N/A,,Clear,230,2013-05-27 18:15:00
1:35 PM,96.8,39.2,14,29.71,10.0,SW,17.3,25.3,N/A,,Clear,230,2013-05-27 18:35:00
1:55 PM,96.8,37.4,13,29.70,10.0,WSW,16.1,23.0,N/A,,Clear,240,2013-05-27 18:55:00
2:15 PM,95.0,35.6,12,29.69,10.0,West,15.0,-,N/A,,Partly Cloudy,260,2013-05-27 19:15:00
2:35 PM,96.8,33.8,11,29.69,10.0,West,12.7,20.7,N/A,,Partly Cloudy,260,2013-05-27 19:35:00
2:55 PM,95.0,33.8,12,29.68,10.0,WSW,11.5,18.4,N/A,,Clear,240,2013-05-27 19:55:00
3:15 PM,96.8,33.8,11,29.68,10.0,WSW,21.9,-,N/A,,Clear,240,2013-05-27 20:15:00
3:35 PM,96.8,33.8,11,29.67,10.0,SW,17.3,26.5,N/A,,Clear,230,2013-05-27 20:35:00
3:55 PM,98.6,33.8,10,29.67,10.0,SW,23.0,29.9,N/A,,Partly Cloudy,220,2013-05-27 20:55:00
4:15 PM,96.8,33.8,11,29.66,10.0,SW,23.0,29.9,N/A,,Partly Cloudy,230,2013-05-27 21:15:00
4:35 PM,98.6,33.8,10,29.65,10.0,SW,25.3,31.1,N/A,,Clear,230,2013-05-27 21:35:00
4:55 PM,96.8,32.0,10,29.65,10.0,SW,23.0,28.8,N/A,,Clear,230,2013-05-27 21:55:00
5:15 PM,96.8,32.0,10,29.65,10.0,SW,24.2,-,N/A,,Clear,220,2013-05-27 22:15:00
5:35 PM,95.0,30.2,10,29.65,10.0,SW,23.0,28.8,N/A,,Clear,220,2013-05-27 22:35:00
5:55 PM,93.2,30.2,11,29.64,10.0,SW,20.7,27.6,N/A,,Clear,220,2013-05-27 22:55:00
6:15 PM,95.0,30.2,10,29.64,10.0,SW,24.2,-,N/A,,Clear,220,2013-05-27 23:15:00
6:35 PM,93.2,30.2,11,29.64,10.0,SW,18.4,29.9,N/A,,Clear,230,2013-05-27 23:35:00
6:55 PM,91.4,30.2,11,29.63,10.0,SW,17.3,24.2,N/A,,Clear,230,2013-05-27 23:55:00
7:15 PM,93.2,30.2,11,29.63,10.0,SW,20.7,24.2,N/A,,Clear,230,2013-05-28 00:15:00
7:35 PM,89.6,28.4,11,29.63,10.0,WSW,12.7,20.7,N/A,,Clear,240,2013-05-28 00:35:00
7:55 PM,87.8,26.6,11,29.63,10.0,WSW,11.5,-,N/A,,Clear,240,2013-05-28 00:55:00
8:15 PM,87.8,26.6,11,29.63,10.0,WSW,10.4,-,N/A,,Clear,240,2013-05-28 01:15:00
8:35 PM,86.0,24.8,11,29.63,10.0,WSW,10.4,-,N/A,,Clear,240,2013-05-28 01:35:00
8:55 PM,80.6,23.0,12,29.63,10.0,WSW,11.5,-,N/A,,Clear,250,2013-05-28 01:55:00
9:15 PM,78.8,21.2,12,29.64,10.0,SW,10.4,-,N/A,,Clear,220,2013-05-28 02:15:00
9:35 PM,75.2,21.2,13,29.64,10.0,SW,10.4,-,N/A,,Clear,220,2013-05-28 02:35:00
9:55 PM,73.4,21.2,14,29.64,10.0,SW,12.7,-,N/A,,Clear,220,2013-05-28 02:55:00
10:15 PM,71.6,19.4,14,29.65,10.0,SW,10.4,-,N/A,,Clear,220,2013-05-28 03:15:00
10:35 PM,71.6,21.2,15,29.65,10.0,SW,11.5,-,N/A,,Clear,220,2013-05-28 03:35:00
10:55 PM,73.4,21.2,14,29.65,10.0,SSW,9.2,-,N/A,,Clear,210,2013-05-28 03:55:00
11:15 PM,69.8,21.2,16,29.66,10.0,SW,10.4,-,N/A,,Clear,220,2013-05-28 04:15:00
11:35 PM,68.0,21.2,17,29.66,10.0,SSW,10.4,-,N/A,,Clear,210,2013-05-28 04:35:00
11:55 PM,66.2,21.2,18,29.66,10.0,South,11.5,-,N/A,,Clear,190,2013-05-28 04:55:00